1278288029439,25.6135
1278288089439,25.7328
1278288149439,25.6696
1278288209439,25.6569
1278288269439,25.6669
1278288329439,25.7567
1278288389439,25.6441
1278288449439,25.6645
1278288509439,25.7196
1278288569439,25.6766
1278288629439,25.7102
1278288689439,25.6650
1278288749439,25.6209
1278288809439,25.6335
1278288869439,25.6462
1278288929439,25.6717
1278288989439,25.5506
1278289049439,25.6367
1278289109439,25.6784
1278289169439,25.6890
1278289229439,25.5818
1278289289439,25.6124
1278289349439,25.6673
1278289409439,25.5208
1278289469439,25.6652
1278289529439,25.5938
1278289589439,25.6299
1278289649439,25.5707
1278289709439,25.6341
1278289769439,25.6393
1278289829439,25.6652
1278289889439,25.6311
1278289949439,25.6921
1278290009439,25.6961
1278290069439,25.6136
1278290129439,25.6060
1278290189439,25.5798
1278290249439,25.5508
1278290309439,25.7351
1278290369439,25.6785
1278290429439,25.6535
1278290489439,25.7296
1278290549439,25.6373
1278290609439,25.7074
1278290669439,25.6634
1278290729439,25.6433
1278290789439,25.5997
1278290849439,25.6105
1278290909439,25.5900
1278290969439,25.6393
1278291029439,25.5706
1278291089439,25.4944
1278291149439,25.5907
1278291209439,25.5882
1278291269439,25.6564
1278291329439,25.6243
1278291389439,25.6360
1278291449439,25.6514
1278291509439,25.5693
1278291569439,25.6513
1278291629448,25.6838
1278291689448,25.5249
1278291749448,25.5599
1278291809448,25.6493
1278291869448,25.6290
1278291929448,25.6987
1278291989448,25.6053
1278292049448,25.6133
1278292109448,25.5926
1278292169448,25.5296
1278292229448,25.6246
1278292289448,25.6595
1278292349448,25.6263
1278292409448,25.6760
1278292469448,25.6144
1278292529448,25.5562
1278292589448,25.6486
1278292649448,25.6433
1278292709448,25.7164
1278292769448,25.6468
1278292829448,25.6584
1278292889448,25.7456
1278292949448,25.7165
1278293009448,25.6563
1278293069448,25.6402
1278293129448,25.6238
1278293189448,25.6195
1278293249448,25.7396
1278293309448,25.6351
1278293369448,25.7247
1278293429448,25.7573
1278293489448,25.7483
1278293549448,25.6541
1278293609448,25.6584
1278293669448,25.7095
1278293729448,25.6704
1278293789448,25.6401
1278293849448,25.6145
1278293909448,25.5808
1278293969448,25.7292
1278294029448,25.6706
1278294089448,25.7073
1278294149448,25.6913
1278294209448,25.6935
1278294269448,25.6141
1278294329448,25.6497
1278294389448,25.6518
1278294449448,25.6866
1278294509448,25.5987
1278294569448,25.6498
1278294629448,25.6135
1278294689448,25.5744
1278294749448,25.6546
1278294809448,25.6643
1278294869448,25.6445
1278294929448,25.6324
1278294989448,25.6445
1278295049448,25.6687
1278295109448,25.5841
1278295169448,25.6658
1278295229457,25.7301
1278295289457,25.6792
1278295349457,25.6235
1278295409457,25.6349
1278295469457,25.5208
1278295529457,25.6103
1278295589457,25.6051
1278295649457,25.6426
1278295709457,25.6187
1278295769457,25.6030
1278295829457,25.6379
1278295889457,25.6770
1278295949457,25.6065
1278296009457,25.6334
1278296069457,25.6019
1278296129457,25.6348
1278296189457,25.6209
1278296249457,25.5823
1278296309457,25.6758
1278296369457,25.6933
1278296429457,25.6296
1278296489457,25.7415
1278296549457,25.7041
1278296609457,25.7578
1278296669457,25.7483
1278296729457,25.6715
1278296789457,25.6778
1278296849457,25.6944
1278296909457,25.7423
1278296969457,25.8093
1278297029457,25.7131
1278297089457,25.6708
1278297149457,25.6067
1278297209457,25.6242
1278297269457,25.6394
1278297329457,25.7941
1278297389457,25.6529
1278297449457,25.7680
1278297509457,25.6956
1278297569457,25.7066
1278297629457,25.6598
1278297689457,25.7088
1278297749457,25.7716
1278297809457,25.6878
1278297869457,25.6967
1278297929457,25.7690
1278297989457,25.7430
1278298049457,25.7969
1278298109457,25.7292
1278298169457,25.7532
1278298229457,25.6998
1278298289457,25.7386
1278298349457,25.7844
1278298409457,25.8875
1278298469457,25.7075
1278298529457,25.7554
1278298589457,25.7497
1278298649457,25.7176
1278298709457,25.8025
1278298769457,25.7443
1278298829466,25.6438
1278298889466,25.7222
1278298949466,25.7201
1278299009466,25.7686
1278299069466,25.7862
1278299129466,25.7357
1278299189466,25.6788
1278299249466,25.7346
1278299309466,25.7905
1278299369466,25.7606
1278299429466,25.7487
1278299489466,25.6905
1278299549466,25.8088
1278299609466,25.7661
1278299669466,25.7914
1278299729466,25.7720
1278299789466,25.7138
1278299849466,25.7670
1278299909466,25.7164
1278299969466,25.7267
1278300029466,25.7210
1278300089466,25.7458
1278300149466,25.7786
1278300209466,25.7344
1278300269466,25.8171
1278300329466,25.7694
1278300389466,25.7031
1278300449466,25.7711
1278300509466,25.8014
1278300569466,25.8485
1278300629466,25.7629
1278300689466,25.7781
1278300749466,25.8544
1278300809466,25.7416
1278300869466,25.8493
1278300929466,25.8059
1278300989466,25.8029
1278301049466,25.7439
1278301109466,25.7623
1278301169466,25.8408
1278301229466,25.7642
1278301289466,25.8456
1278301349466,25.7460
1278301409466,25.8128
1278301469466,25.8004
1278301529466,25.8108
1278301589466,25.7839
1278301649466,25.8274
1278301709466,25.7416
1278301769466,25.8518
1278301829466,25.7858
1278301889466,25.8083
1278301949466,25.8141
1278302009466,25.8080
1278302069466,25.8567
1278302129466,25.8699
1278302189466,25.8088
1278302249466,25.9222
1278302309466,25.8295
1278302369466,25.8358
1278302429475,25.8427
1278302489475,25.7897
1278302549475,25.7834
1278302609475,25.7788
1278302669475,25.8098
1278302729475,25.8227
1278302789475,25.7804
1278302849475,25.7824
1278302909475,25.8201
1278302969475,25.8424
1278303029475,25.8594
1278303089475,25.8774
1278303149475,25.9003
1278303209475,25.7973
1278303269475,25.8758
1278303329475,25.7955
1278303389475,25.7960
1278303449475,25.7963
1278303509475,25.8164
1278303569475,25.8374
1278303629475,25.7649
1278303689475,25.8886
1278303749475,25.8660
1278303809475,25.8332
1278303869475,25.8520
1278303929475,25.7724
1278303989475,25.8142
1278304049475,25.8119
1278304109475,25.8412
1278304169475,25.7483
1278304229475,25.8439
1278304289475,25.9533
1278304349475,25.8325
1278304409475,25.8596
1278304469475,25.8519
1278304529475,25.8521
1278304589475,25.8958
1278304649475,25.8798
1278304709475,25.8842
1278304769475,25.9070
1278304829475,25.8941
1278304889475,25.7912
1278304949475,25.9847
1278305009475,25.9279
1278305069475,25.8581
1278305129475,25.8880
1278305189475,25.9504
1278305249475,25.9031
1278305309475,25.8909
1278305369475,25.8995
1278305429475,25.9281
1278305489475,25.9121
1278305549475,25.9209
1278305609475,25.9079
1278305669475,25.9819
1278305729475,25.9015
1278305789475,25.9012
1278305849475,25.8935
1278305909475,25.9153
1278305969475,25.9130
1278306029484,25.8937
1278306089484,25.9206
1278306149484,25.9157
1278306209484,25.8695
1278306269484,25.8483
1278306329484,25.9095
1278306389484,25.8143
1278306449484,25.9651
1278306509484,25.9560
1278306569484,25.9259
1278306629484,25.9843
1278306689484,25.9529
1278306749484,25.8812
1278306809484,25.9664
1278306869484,25.8629
1278306929484,25.9543
1278306989484,25.9244
1278307049484,25.8674
1278307109484,25.8797
1278307169484,25.9948
1278307229484,25.8959
1278307289484,25.8726
1278307349484,25.9138
1278307409484,25.9171
1278307469484,25.8857
1278307529484,25.9158
1278307589484,25.8966
1278307649484,25.9217
1278307709484,25.8347
1278307769484,25.8962
1278307829484,25.8920
1278307889484,25.9452
1278307949484,25.9310
1278308009484,25.8792
1278308069484,25.9814
1278308129484,25.8978
1278308189484,25.9422
1278308249484,25.8762
1278308309484,25.8643
1278308369484,25.9091
1278308429484,25.8870
1278308489484,25.9802
1278308549484,25.9070
1278308609484,25.8710
1278308669484,25.9158
1278308729484,25.9281
1278308789484,25.8609
1278308849484,25.8450
1278308909484,25.8815
1278308969484,25.8792
1278309029484,25.8407
1278309089484,25.8941
1278309149484,25.8277
1278309209484,25.8211
1278309269484,25.8870
1278309329484,25.8437
1278309389484,25.9649
1278309449484,25.7930
1278309509484,25.9668
1278309569484,25.9134
1278309629492,25.8509
1278309689492,25.9831
1278309749492,25.9560
1278309809492,25.9209
1278309869492,25.8445
1278309929492,25.9734
1278309989492,25.9132
1278310049492,25.9315
1278310109492,25.8784
1278310169492,25.9415
1278310229492,25.8875
1278310289492,25.9319
1278310349492,25.8638
1278310409492,25.7970
1278310469492,25.9325
1278310529492,25.8620
1278310589492,25.9496
1278310649492,25.8394
1278310709492,25.8863
1278310769492,25.9597
1278310829492,25.9390
1278310889492,25.8824
1278310949492,25.8771
1278311009492,25.9535
1278311069492,25.9370
1278311129492,25.9347
1278311189492,25.8760
1278311249492,25.8498
1278311309492,25.9328
1278311369492,26.0096
1278311429492,25.8761
1278311489492,25.9365
1278311549492,25.9089
1278311609492,25.8940
1278311669492,25.9546
1278311729492,25.9418
1278311789492,25.8335
1278311849492,25.8800
1278311909492,25.9553
1278311969492,25.9072
1278312029492,25.8857
1278312089492,25.9343
1278312149492,25.8872
1278312209492,25.9548
1278312269492,25.9171
1278312329492,25.9187
1278312389492,25.9354
1278312449492,25.9809
1278312509492,25.9845
1278312569492,25.9790
1278312629492,25.9394
1278312689492,25.9368
1278312749492,25.8189
1278312809492,26.0520
1278312869492,25.9072
1278312929492,25.9104
1278312989492,25.8052
1278313049492,25.8887
1278313109492,25.9728
1278313169492,25.9111
1278313229501,25.9395
1278313289501,25.9386
1278313349501,25.9294
1278313409501,25.8495
1278313469501,25.9621
1278313529501,25.9177
1278313589501,25.8709
1278313649501,25.9767
1278313709501,26.0185
1278313769501,25.8992
1278313829501,25.9785
1278313889501,26.1738
1278313949501,26.0197
1278314009501,25.8732
1278314069501,25.9364
1278314129501,25.9192
1278314189501,25.9904
1278314249501,25.9766
1278314309501,25.9783
1278314369501,26.0148
1278314429501,25.9274
1278314489501,25.9501
1278314549501,25.9668
1278314609501,25.9837
1278314669501,25.9742
1278314729501,25.9501
1278314789501,25.9882
1278314849501,26.0263
1278314909501,26.1917
1278314969501,25.9455
1278315029501,25.9410
1278315089501,25.9771
1278315149501,25.9636
1278315209501,25.8704
1278315269501,25.8467
1278315329501,25.9518
1278315389501,26.0023
1278315449501,25.9772
1278315509501,25.9244
1278315569501,25.9542
1278315629501,26.0418
1278315689501,25.9588
1278315749501,26.0438
1278315809501,25.9305
1278315869501,25.9495
1278315929501,25.9047
1278315989501,26.1071
1278316049501,25.9072
1278316109501,25.8979
1278316169501,25.9785
1278316229501,25.9515
1278316289501,25.9832
1278316349501,25.9557
1278316409501,26.0115
1278316469501,25.9709
1278316529501,26.0000
1278316589501,25.9266
1278316649501,26.0380
1278316709501,26.0036
1278316769501,26.0129
1278316829509,26.0132
1278316889509,26.0252
1278316949509,25.9092
1278317009509,25.9455
1278317069509,25.9494
1278317129509,26.0621
1278317189509,26.0627
1278317249509,26.0220
1278317309509,25.9118
1278317369509,25.8541
1278317429509,26.0090
1278317489509,25.9872
1278317549509,26.0965
1278317609509,25.9066
1278317669509,25.9712
1278317729509,26.0839
1278317789509,25.9550
1278317849509,25.9232
1278317909509,26.0494
1278317969509,26.0370
1278318029509,25.9465
1278318089509,25.9931
1278318149509,25.9928
1278318209509,25.9375
1278318269509,25.9942
1278318329509,26.0721
1278318389509,25.8472
1278318449509,25.9287
1278318509509,26.0399
1278318569509,25.8967
1278318629509,25.9298
1278318689509,25.9551
1278318749509,25.9457
1278318809509,25.9335
1278318869509,25.9943
1278318929509,25.9801
1278318989509,25.9797
1278319049509,26.0332
1278319109509,25.9605
1278319169509,25.9951
1278319229509,25.8775
1278319289509,25.9465
1278319349509,25.9948
1278319409509,25.9600
1278319469509,26.0591
1278319529509,25.9740
1278319589509,25.8866
1278319649509,26.0141
1278319709509,25.9126
1278319769509,25.9503
1278319829509,25.9084
1278319889509,25.9018
1278319949509,25.9153
1278320009509,25.8663
1278320069509,25.9606
1278320129509,25.9391
1278320189509,25.9788
1278320249509,25.9790
1278320309509,25.9883
1278320369509,25.9211
1278320429518,26.0178
1278320489518,25.9035
1278320549518,26.0352
1278320609518,25.9536
1278320669518,25.9275
1278320729518,25.9205
1278320789518,25.9783
1278320849518,25.9579
1278320909518,25.9816
1278320969518,25.9200
1278321029518,25.9390
1278321089518,25.9795
1278321149518,25.9543
1278321209518,26.0196
1278321269518,25.9752
1278321329518,25.9480
1278321389518,25.9254
1278321449518,25.9867
1278321509518,25.9866
1278321569518,25.8885
1278321629518,26.0207
1278321689518,25.9998
1278321749518,26.0006
1278321809518,26.0225
1278321869518,25.9681
1278321929518,25.9681
1278321989518,25.9246
1278322049518,25.9472
1278322109518,25.9307
1278322169518,26.0048
1278322229518,25.9319
1278322289518,25.9488
1278322349518,25.9340
1278322409518,25.9669
1278322469518,25.9947
1278322529518,25.9507
1278322589518,26.0570
1278322649518,25.9125
1278322709518,25.9234
1278322769518,26.0348
1278322829518,25.9779
1278322889518,26.0126
1278322949518,25.9667
1278323009518,25.9610
1278323069518,25.9651
1278323129518,25.9407
1278323189518,25.9764
1278323249518,25.9084
1278323309518,25.9219
1278323369518,25.9064
1278323429518,25.9710
1278323489518,25.9199
1278323549518,25.9194
1278323609518,25.9130
1278323669518,26.0091
1278323729518,25.9904
1278323789518,26.0370
1278323849518,25.9577
1278323909518,26.0084
1278323969518,26.0047
1278324029526,25.8935
1278324089526,26.0289
1278324149526,25.9481
1278324209526,25.9742
1278324269526,25.9490
1278324329526,25.9382
1278324389526,26.0019
1278324449526,25.9165
1278324509526,25.9293
1278324569526,26.0359
1278324629526,26.0114
1278324689526,25.9904
1278324749526,25.9591
1278324809526,25.9419
1278324869526,25.9740
1278324929526,25.9358
1278324989526,25.9495
1278325049526,25.9746
1278325109526,26.1107
1278325169526,25.9981
1278325229526,26.0272
1278325289526,25.9998
1278325349526,26.0166
1278325409526,26.0901
1278325469526,26.0111
1278325529526,26.0282
1278325589526,25.9413
1278325649526,25.9577
1278325709526,26.0159
1278325769526,25.9906
1278325829526,25.9017
1278325889526,25.9976
1278325949526,25.9648
1278326009526,25.9708
1278326069526,25.9755
1278326129526,25.8905
1278326189526,25.9922
1278326249526,26.0184
1278326309526,25.9969
1278326369526,25.9463
1278326429526,25.9843
1278326489526,26.0220
1278326549526,26.0514
1278326609526,25.9254
1278326669526,25.9150
1278326729526,25.9960
1278326789526,25.9782
1278326849526,26.0259
1278326909526,26.0312
1278326969526,25.9413
1278327029526,25.9789
1278327089526,25.9893
1278327149526,25.9261
1278327209526,26.0349
1278327269526,26.0340
1278327329526,26.0009
1278327389526,25.8984
1278327449526,25.9644
1278327509526,25.9972
1278327569526,25.9172
1278327629535,25.9659
1278327689535,25.9941
1278327749535,26.0344
1278327809535,25.9804
1278327869535,25.9135
1278327929535,25.9905
1278327989535,25.9013
1278328049535,26.0401
1278328109535,25.9807
1278328169535,26.0698
1278328229535,25.9224
1278328289535,26.0170
1278328349535,26.0212
1278328409535,26.0274
1278328469535,26.0507
1278328529535,25.9905
1278328589535,25.9665
1278328649535,25.9026
1278328709535,25.9789
1278328769535,25.9687
1278328829535,25.9577
1278328889535,26.0194
1278328949535,25.9643
1278329009535,25.9537
1278329069535,25.9848
1278329129535,26.0122
1278329189535,25.9823
1278329249535,25.9814
1278329309535,26.0223
1278329369535,26.0284
1278329429535,26.0784
1278329489535,26.0288
1278329549535,25.9452
1278329609535,26.0382
1278329669535,25.9488
1278329729535,26.0936
1278329789535,26.0081
1278329849535,25.9537
1278329909535,25.9845
1278329969535,26.0047
1278330029535,26.0492
1278330089535,25.9929
1278330149535,26.1584
1278330209535,25.9709
1278330269535,26.0251
1278330329535,25.9648
1278330389535,25.9292
1278330449535,26.0147
1278330509535,25.9334
1278330569535,26.0390
1278330629535,26.0160
1278330689535,25.9464
1278330749535,25.9312
1278330809535,26.0296
1278330869535,25.8821
1278330929535,25.9234
1278330989535,26.0002
1278331049535,25.9308
1278331109535,26.0137
1278331169535,26.0175
1278331229543,25.9565
1278331289543,26.0394
1278331349543,26.1181
1278331409543,25.9888
1278331469543,26.0238
1278331529543,25.9151
1278331589543,26.0592
1278331649543,26.0530
1278331709543,26.0479
1278331769543,26.0581
1278331829543,26.1277
1278331889543,26.0261
1278331949543,26.0247
1278332009543,26.0713
1278332069543,26.0676
1278332129543,25.9678
1278332189543,26.0355
1278332249543,26.0759
1278332309543,26.0525
1278332369543,25.9887
1278332429543,26.0012
1278332489543,26.0298
1278332549543,26.0987
1278332609543,26.0862
1278332669543,26.0401
1278332729543,25.9941
1278332789543,26.0575
1278332849543,26.1056
1278332909543,26.0012
1278332969543,26.1233
1278333029543,26.1585
1278333089543,26.0459
1278333149543,26.1209
1278333209543,26.1062
1278333269543,26.0832
1278333329543,26.0631
1278333389543,26.0230
1278333449543,26.2601
1278333509543,26.0611
1278333569543,26.1168
1278333629543,26.0695
1278333689543,26.0437
1278333749543,26.1309
1278333809543,26.0885
1278333869543,26.0960
1278333929543,26.1280
1278333989543,26.1573
1278334049543,26.1330
1278334109543,26.1694
1278334169543,26.0926
1278334229543,26.1887
1278334289543,26.0713
1278334349543,26.1099
1278334409543,26.2117
1278334469543,26.2372
1278334529543,26.1561
1278334589543,26.1121
1278334649543,26.1848
1278334709543,26.1736
1278334769543,26.1038
1278334829551,26.1166
1278335429552,26.3338
1278335489552,26.2071
1278335549552,26.1531
1278335609552,26.2277
1278335669552,26.2367
1278335729552,26.1279
1278335789552,26.2703
1278335849552,26.2213
1278335909552,26.2212
1278335969552,26.3112
1278336029551,26.2623
1278336089551,26.2806
1278336149551,26.3234
1278336209551,26.2361
1278336269551,26.2306
1278336329551,26.3478
1278336389552,26.2264
1278336449552,26.3154
1278336509552,26.2767
1278336569552,26.2565
1278336629552,26.3002
1278336689552,26.2926
1278336749552,26.2985
1278336809552,26.3340
1278336869552,26.2187
1278336929552,26.4266
1278336989552,26.2713
1278337049552,26.2735
1278337109552,26.2998
1278337169552,26.2608
1278337229552,26.3677
1278337289552,26.3494
1278337349551,26.3067
1278337409551,26.3205
1278337469551,26.3237
1278337529551,26.2797
1278337589551,26.3460
1278337649551,26.3399
1278337709552,26.2701
1278337769552,26.3892
1278337829552,26.2562
1278337889552,26.3071
1278337949552,26.3389
1278338009552,26.3432
1278338069552,26.3330
1278338129552,26.3109
1278338189552,26.3146
1278338249552,26.3649
1278338309552,26.3741
1278338369552,26.2783
1278338429560,26.4105
1278338489560,26.3237
1278338549560,26.4208
1278338609560,26.4104
1278338669560,26.4830
1278338729560,26.2977
1278338789560,26.3669
1278338849560,26.3771
1278338909560,26.3016
1278338969560,26.3302
1278339029560,26.3521
1278339089560,26.4103
1278339149560,26.3268
1278339209560,26.4223
1278339269560,26.3964
1278339329560,26.3737
1278339389560,26.3373
1278339449560,26.2697
1278339509560,26.3458
1278339569560,26.3650
1278339629560,26.2994
1278339689560,26.3498
1278339749560,26.3769
1278339809560,26.3428
1278339869560,26.3583
1278339929560,26.2962
1278339989560,26.4366
1278340049560,26.3243
1278340109560,26.3614
1278340169560,26.3988
1278340229560,26.3397
1278340289560,26.4241
1278340349560,26.4609
1278340409560,26.3976
1278340469560,26.3235
1278340529560,26.3353
1278340589560,26.4090
1278340649560,26.3405
1278340709560,26.3786
1278340769560,26.2927
1278340829560,26.3636
1278340889560,26.3738
1278340949560,26.3607
1278341009560,26.3529
1278341069560,26.3703
1278341129560,26.2933
1278341189560,26.3410
1278341249560,26.3421
1278341309560,26.3702
1278341369560,26.4121
1278341429560,26.3432
1278341489560,26.2964
1278341549560,26.3840
1278341609560,26.3841
1278341669560,26.3379
1278341729560,26.2904
1278341789560,26.3304
1278341849560,26.3191
1278341909560,26.4407
1278341969560,26.3517
1278342029569,26.3054
1278342089569,26.3811
1278342149569,26.3049
1278342209569,26.3601
1278342269569,26.2735
1278342329569,26.3477
1278342389569,26.3111
1278342449569,26.4166
1278342509569,26.3571
1278342569569,26.3153
1278342629569,26.3324
1278342689569,26.2975
1278342749569,26.3570
1278342809569,26.3752
1278342869569,26.3970
1278342929569,26.2982
1278342989569,26.2894
1278343049569,26.3303
1278343109569,26.3702
1278343169569,26.2556
1278343229569,26.2675
1278343289569,26.4283
1278343349569,26.3312
1278343409569,26.3030
1278343469569,26.2657
1278343529569,26.4421
1278343589569,26.2411
1278343649569,26.3998
1278343709569,26.3334
1278343769569,26.3612
1278343829569,26.2743
1278343889569,26.3637
1278343949569,26.2990
1278344009569,26.2361
1278344069569,26.2959
1278344129569,26.3215
1278344189569,26.2976
1278344249569,26.3478
1278344309569,26.2765
1278344369569,26.2932
1278344429569,26.2921
1278344489569,26.3324
1278344549569,26.3365
1278344609569,26.3421
1278344669569,26.2678
1278344729569,26.2508
1278344789569,26.3251
1278344849569,26.3018
1278344909569,26.3470
1278344969569,26.3211
1278345029569,26.3447
1278345089569,26.3999
1278345149569,26.3141
1278345209569,26.2336
1278345269569,26.3391
1278345329569,26.2697
1278345389569,26.3537
1278345449569,26.3768
1278345509569,26.2699
1278345569569,26.2935
1278345629578,26.2227
1278345689578,26.2680
1278345749578,26.2630
1278345809578,26.3474
1278345869578,26.2807
1278345929578,26.3259
1278345989578,26.2997
1278346049578,26.2840
1278346109578,26.3060
1278346169578,26.2489
1278346229578,26.2595
1278346289578,26.3107
1278346349578,26.2976
1278346409578,26.3308
1278346469578,26.3462
1278346529578,26.2745
1278346589578,26.3141
1278346649578,26.2846
1278346709578,26.2192
1278346769578,26.2657
1278346829578,26.3283
1278346889578,26.3205
1278346949578,26.2839
1278347009578,26.3377
1278347069578,26.2343
1278347129578,26.2870
1278347189578,26.2934
1278347249578,26.3575
1278347309578,26.3608
1278347369578,26.2850
1278347429578,26.2872
1278347489578,26.3177
1278347549578,26.3485
1278347609578,26.3886
1278347669578,26.3380
1278347729578,26.3697
1278347789578,26.3545
1278347849578,26.3671
1278347909578,26.3678
1278347969578,26.3849
1278348029578,26.3288
1278348089578,26.3357
1278348149578,26.4144
1278348209578,26.3100
1278348269578,26.3346
1278348329578,26.3390
1278348389578,26.2803
1278348449578,26.3007
1278348509578,26.2308
1278348569578,26.2901
1278348629578,26.3083
1278348689578,26.2819
1278348749578,26.2278
1278348809578,26.2954
1278348869578,26.3406
1278348929578,26.2596
1278348989578,26.3200
1278349049578,26.2311
1278349109578,26.3051
1278349169578,26.3570
1278349229587,26.2651
1278349289587,26.2443
1278349349587,26.2555
1278349409587,26.1831
1278349469587,26.2430
1278349529587,26.3119
1278349589587,26.2521
1278349649587,26.2735
1278349709587,26.2724
1278349769587,26.1196
1278349829587,26.1412
1278349889587,26.1726
1278349949587,26.2293
1278350009587,26.1846
1278350069587,26.1009
1278350129587,26.1673
1278350189587,26.1383
1278350249587,26.1343
1278350309587,26.1731
1278350369587,26.1986
1278350429587,26.0767
1278350489587,26.1668
1278350549587,26.1272
1278350609587,26.1842
1278350669587,26.0743
1278350729587,26.0961
1278350789587,26.1876
1278350849587,26.1788
1278350909587,26.1409
1278350969587,26.0648
1278351029587,26.1043
1278351089587,25.9565
1278351149587,26.0101
1278351209587,26.0370
1278351269587,26.0817
1278351329587,26.0184
1278351389587,26.0128
1278351449587,26.0351
1278351509587,25.9909
1278351569587,25.9910
1278351629587,26.0052
1278351689587,25.9414
1278351749587,26.0087
1278351809587,25.9402
1278351869587,25.9071
1278351929587,25.9337
1278351989587,26.0458
1278352049587,26.0551
1278352109587,25.9422
1278352169587,25.9280
1278352229587,25.9430
1278352289587,25.9810
1278352349587,25.9438
1278352409587,25.8817
1278352469587,25.9681
1278352529587,25.9777
1278352589587,25.9435
1278352649587,25.8859
1278352709587,25.9933
1278352769587,25.9582
1278352829597,25.9841
1278352889597,25.8650
1278352949597,26.0515
1278353009597,25.9610
1278353069597,25.9466
1278353129597,25.7950
1278353189597,26.0192
1278353249597,25.9618
1278353309597,25.8885
1278353369597,26.0292
1278353429597,25.9388
1278353489597,25.9320
1278353549597,25.9091
1278353609597,25.9263
1278353669597,25.9701
1278353729597,25.9160
1278353789597,25.9089
1278353849597,25.9483
1278353909597,25.8877